owner,sensor,date,latitude,longitude,sea_surface_height_above_sea_level,qcFlag 
TCOON,ioos:station:TCOON:068:1,2019-01-01T00:24:00Z,27.2970,-97.4049,4.331,1111122 
TCOON,ioos:station:TCOON:068:1,2019-01-01T01:24:00Z,27.2970,-97.4049,4.325,1111122 
TCOON,ioos:station:TCOON:068:1,2019-01-01T02:24:00Z,27.2970,-97.4049,4.328,1111122 
TCOON,ioos:station:TCOON:068:1,2019-01-01T03:24:00Z,27.2970,-97.4049,4.329,1111122 
TCOON,ioos:station:TCOON:068:1,2019-01-01T04:24:00Z,27.2970,-97.4049,4.329,1111122 
TCOON,ioos:station:TCOON:068:1,2019-01-01T05:24:00Z,27.2970,-97.4049,4.329,1111122 
TCOON,ioos:station:TCOON:068:1,2019-01-01T06:24:00Z,27.2970,-97.4049,4.328,1111122 
TCOON,ioos:station:TCOON:068:1,2019-01-01T07:24:00Z,27.2970,-97.4049,4.326,1111122 
TCOON,ioos:station:TCOON:068:1,2019-01-01T08:24:00Z,27.2970,-97.4049,4.327,1111122 
TCOON,ioos:station:TCOON:068:1,2019-01-01T09:24:00Z,27.2970,-97.4049,4.326,1111122 
TCOON,ioos:station:TCOON:068:1,2019-01-01T10:24:00Z,27.2970,-97.4049,4.325,1111122 
TCOON,ioos:station:TCOON:068:1,2019-01-01T11:24:00Z,27.2970,-97.4049,4.326,1111122 
TCOON,ioos:station:TCOON:068:1,2019-01-01T12:24:00Z,27.2970,-97.4049,4.321,1111122 
TCOON,ioos:station:TCOON:068:1,2019-01-01T13:24:00Z,27.2970,-97.4049,4.321,1111122 
TCOON,ioos:station:TCOON:068:1,2019-01-01T14:24:00Z,27.2970,-97.4049,4.317,1111122 
TCOON,ioos:station:TCOON:068:1,2019-01-01T15:24:00Z,27.2970,-97.4049,4.313,1111122 
TCOON,ioos:station:TCOON:068:1,2019-01-01T16:24:00Z,27.2970,-97.4049,4.319,1111122 
TCOON,ioos:station:TCOON:068:1,2019-01-01T17:24:00Z,27.2970,-97.4049,4.304,1111122 
TCOON,ioos:station:TCOON:068:1,2019-01-01T18:24:00Z,27.2970,-97.4049,4.308,1111122 
TCOON,ioos:station:TCOON:068:1,2019-01-01T19:24:00Z,27.2970,-97.4049,4.311,1111122 
TCOON,ioos:station:TCOON:068:1,2019-01-01T20:24:00Z,27.2970,-97.4049,4.308,1111122 
TCOON,ioos:station:TCOON:068:1,2019-01-01T21:24:00Z,27.2970,-97.4049,4.303,1111122 
TCOON,ioos:station:TCOON:068:1,2019-01-01T22:24:00Z,27.2970,-97.4049,4.303,1111122 
TCOON,ioos:station:TCOON:068:1,2019-01-01T23:24:00Z,27.2970,-97.4049,4.314,1111122 
TCOON,ioos:station:TCOON:068:1,2019-01-02T00:24:00Z,27.2970,-97.4049,4.312,1111122 
TCOON,ioos:station:TCOON:068:1,2019-01-02T01:24:00Z,27.2970,-97.4049,4.32,1111122 
TCOON,ioos:station:TCOON:068:1,2019-01-02T02:24:00Z,27.2970,-97.4049,4.319,1111122 
TCOON,ioos:station:TCOON:068:1,2019-01-02T03:24:00Z,27.2970,-97.4049,4.314,1111122 
TCOON,ioos:station:TCOON:068:1,2019-01-02T04:24:00Z,27.2970,-97.4049,4.32,1111122 
TCOON,ioos:station:TCOON:068:1,2019-01-02T05:24:00Z,27.2970,-97.4049,4.322,1111122 
TCOON,ioos:station:TCOON:068:1,2019-01-02T06:24:00Z,27.2970,-97.4049,4.327,1111122 
TCOON,ioos:station:TCOON:068:1,2019-01-02T07:24:00Z,27.2970,-97.4049,4.334,1111122 
TCOON,ioos:station:TCOON:068:1,2019-01-02T08:24:00Z,27.2970,-97.4049,4.339,1111122 
TCOON,ioos:station:TCOON:068:1,2019-01-02T09:24:00Z,27.2970,-97.4049,4.345,1111122 
TCOON,ioos:station:TCOON:068:1,2019-01-02T10:24:00Z,27.2970,-97.4049,4.358,1111122 
TCOON,ioos:station:TCOON:068:1,2019-01-02T11:24:00Z,27.2970,-97.4049,4.356,1111122 
TCOON,ioos:station:TCOON:068:1,2019-01-02T12:24:00Z,27.2970,-97.4049,4.35,1111122 
TCOON,ioos:station:TCOON:068:1,2019-01-02T13:24:00Z,27.2970,-97.4049,4.335,1111122 
TCOON,ioos:station:TCOON:068:1,2019-01-02T14:24:00Z,27.2970,-97.4049,4.331,1111122 
TCOON,ioos:station:TCOON:068:1,2019-01-02T15:24:00Z,27.2970,-97.4049,4.332,1111122 
TCOON,ioos:station:TCOON:068:1,2019-01-02T16:24:00Z,27.2970,-97.4049,4.352,1111122 
TCOON,ioos:station:TCOON:068:1,2019-01-02T17:24:00Z,27.2970,-97.4049,4.353,1111122 
TCOON,ioos:station:TCOON:068:1,2019-01-02T18:24:00Z,27.2970,-97.4049,4.344,1111122 
TCOON,ioos:station:TCOON:068:1,2019-01-02T19:24:00Z,27.2970,-97.4049,4.352,1111122 
TCOON,ioos:station:TCOON:068:1,2019-01-02T20:24:00Z,27.2970,-97.4049,4.351,1111122 
TCOON,ioos:station:TCOON:068:1,2019-01-02T21:24:00Z,27.2970,-97.4049,4.349,1111122 
TCOON,ioos:station:TCOON:068:1,2019-01-02T22:24:00Z,27.2970,-97.4049,4.375,1111122 
TCOON,ioos:station:TCOON:068:1,2019-01-02T23:24:00Z,27.2970,-97.4049,4.348,1111122 
TCOON,ioos:station:TCOON:068:1,2019-01-03T00:24:00Z,27.2970,-97.4049,4.338,1111122 
TCOON,ioos:station:TCOON:068:1,2019-01-03T01:24:00Z,27.2970,-97.4049,4.323,1111122 
TCOON,ioos:station:TCOON:068:1,2019-01-03T02:24:00Z,27.2970,-97.4049,4.324,1111122 
TCOON,ioos:station:TCOON:068:1,2019-01-03T03:24:00Z,27.2970,-97.4049,4.328,1111122 
TCOON,ioos:station:TCOON:068:1,2019-01-03T04:24:00Z,27.2970,-97.4049,4.326,1111122 
TCOON,ioos:station:TCOON:068:1,2019-01-03T05:24:00Z,27.2970,-97.4049,4.335,1111122 
TCOON,ioos:station:TCOON:068:1,2019-01-03T06:24:00Z,27.2970,-97.4049,4.338,1111122 
TCOON,ioos:station:TCOON:068:1,2019-01-03T07:24:00Z,27.2970,-97.4049,4.348,1111122 
TCOON,ioos:station:TCOON:068:1,2019-01-03T08:24:00Z,27.2970,-97.4049,4.371,1111122 
TCOON,ioos:station:TCOON:068:1,2019-01-03T09:24:00Z,27.2970,-97.4049,4.372,1111122 
TCOON,ioos:station:TCOON:068:1,2019-01-03T10:24:00Z,27.2970,-97.4049,4.379,1111122 
TCOON,ioos:station:TCOON:068:1,2019-01-03T11:24:00Z,27.2970,-97.4049,4.373,1111122 
TCOON,ioos:station:TCOON:068:1,2019-01-03T12:24:00Z,27.2970,-97.4049,4.38,1111122 
TCOON,ioos:station:TCOON:068:1,2019-01-03T13:24:00Z,27.2970,-97.4049,4.388,1111122 
TCOON,ioos:station:TCOON:068:1,2019-01-03T14:24:00Z,27.2970,-97.4049,4.393,1111122 
TCOON,ioos:station:TCOON:068:1,2019-01-03T15:24:00Z,27.2970,-97.4049,4.362,1111122 
TCOON,ioos:station:TCOON:068:1,2019-01-03T16:24:00Z,27.2970,-97.4049,4.357,1111122 
TCOON,ioos:station:TCOON:068:1,2019-01-03T17:24:00Z,27.2970,-97.4049,4.373,1111122 
TCOON,ioos:station:TCOON:068:1,2019-01-03T18:24:00Z,27.2970,-97.4049,4.389,1111122 
TCOON,ioos:station:TCOON:068:1,2019-01-03T19:30:00Z,27.2970,-97.4049,4.374,1111122 
TCOON,ioos:station:TCOON:068:1,2019-01-03T20:24:00Z,27.2970,-97.4049,4.346,1111122 
TCOON,ioos:station:TCOON:068:1,2019-01-03T21:24:00Z,27.2970,-97.4049,4.329,1111122 
TCOON,ioos:station:TCOON:068:1,2019-01-03T22:24:00Z,27.2970,-97.4049,4.338,1111122 
TCOON,ioos:station:TCOON:068:1,2019-01-03T23:24:00Z,27.2970,-97.4049,4.329,1111122 
TCOON,ioos:station:TCOON:068:1,2019-01-04T00:24:00Z,27.2970,-97.4049,4.328,1111122 
TCOON,ioos:station:TCOON:068:1,2019-01-04T01:24:00Z,27.2970,-97.4049,4.329,1111122 
TCOON,ioos:station:TCOON:068:1,2019-01-04T02:24:00Z,27.2970,-97.4049,4.325,1111122 
TCOON,ioos:station:TCOON:068:1,2019-01-04T03:24:00Z,27.2970,-97.4049,4.324,1111122 
TCOON,ioos:station:TCOON:068:1,2019-01-04T04:24:00Z,27.2970,-97.4049,4.321,1111122 
TCOON,ioos:station:TCOON:068:1,2019-01-04T05:24:00Z,27.2970,-97.4049,4.323,1111122 
TCOON,ioos:station:TCOON:068:1,2019-01-04T06:24:00Z,27.2970,-97.4049,4.33,1111122 
TCOON,ioos:station:TCOON:068:1,2019-01-04T07:24:00Z,27.2970,-97.4049,4.337,1111122 
TCOON,ioos:station:TCOON:068:1,2019-01-04T08:24:00Z,27.2970,-97.4049,4.343,1111122 
TCOON,ioos:station:TCOON:068:1,2019-01-04T09:24:00Z,27.2970,-97.4049,4.333,1111122 
TCOON,ioos:station:TCOON:068:1,2019-01-04T10:24:00Z,27.2970,-97.4049,4.328,1111122 
TCOON,ioos:station:TCOON:068:1,2019-01-04T11:24:00Z,27.2970,-97.4049,4.326,1111122 
TCOON,ioos:station:TCOON:068:1,2019-01-04T12:24:00Z,27.2970,-97.4049,4.326,1111122 
TCOON,ioos:station:TCOON:068:1,2019-01-04T13:24:00Z,27.2970,-97.4049,4.331,1111122 
TCOON,ioos:station:TCOON:068:1,2019-01-04T14:24:00Z,27.2970,-97.4049,4.321,1111122 
TCOON,ioos:station:TCOON:068:1,2019-01-04T15:24:00Z,27.2970,-97.4049,4.318,1111122 
TCOON,ioos:station:TCOON:068:1,2019-01-04T16:24:00Z,27.2970,-97.4049,4.316,1111122 
TCOON,ioos:station:TCOON:068:1,2019-01-04T17:24:00Z,27.2970,-97.4049,4.313,1111122 
TCOON,ioos:station:TCOON:068:1,2019-01-04T18:24:00Z,27.2970,-97.4049,4.308,1111122 
TCOON,ioos:station:TCOON:068:1,2019-01-04T19:24:00Z,27.2970,-97.4049,4.305,1111122 
TCOON,ioos:station:TCOON:068:1,2019-01-04T20:24:00Z,27.2970,-97.4049,4.301,1111122 
TCOON,ioos:station:TCOON:068:1,2019-01-04T21:24:00Z,27.2970,-97.4049,4.3,1111122 
TCOON,ioos:station:TCOON:068:1,2019-01-04T22:24:00Z,27.2970,-97.4049,4.293,1111122 
TCOON,ioos:station:TCOON:068:1,2019-01-04T23:24:00Z,27.2970,-97.4049,4.293,1111122 
TCOON,ioos:station:TCOON:068:1,2019-01-05T00:24:00Z,27.2970,-97.4049,4.283,1111122 
TCOON,ioos:station:TCOON:068:1,2019-01-05T01:24:00Z,27.2970,-97.4049,4.291,1111122 
TCOON,ioos:station:TCOON:068:1,2019-01-05T02:24:00Z,27.2970,-97.4049,4.283,1111122 
TCOON,ioos:station:TCOON:068:1,2019-01-05T03:24:00Z,27.2970,-97.4049,4.281,1111122 
TCOON,ioos:station:TCOON:068:1,2019-01-05T04:24:00Z,27.2970,-97.4049,4.278,1111122 
TCOON,ioos:station:TCOON:068:1,2019-01-05T05:24:00Z,27.2970,-97.4049,4.275,1111122 
TCOON,ioos:station:TCOON:068:1,2019-01-05T06:24:00Z,27.2970,-97.4049,4.277,1111122 
TCOON,ioos:station:TCOON:068:1,2019-01-05T07:24:00Z,27.2970,-97.4049,4.276,1111122 
TCOON,ioos:station:TCOON:068:1,2019-01-05T08:24:00Z,27.2970,-97.4049,4.27,1111122 
TCOON,ioos:station:TCOON:068:1,2019-01-05T09:24:00Z,27.2970,-97.4049,4.27,1111122 
TCOON,ioos:station:TCOON:068:1,2019-01-05T10:24:00Z,27.2970,-97.4049,4.266,1111122 
TCOON,ioos:station:TCOON:068:1,2019-01-05T11:24:00Z,27.2970,-97.4049,4.264,1111122 
TCOON,ioos:station:TCOON:068:1,2019-01-05T12:24:00Z,27.2970,-97.4049,4.264,1111122 
TCOON,ioos:station:TCOON:068:1,2019-01-05T13:24:00Z,27.2970,-97.4049,4.261,1111122 
TCOON,ioos:station:TCOON:068:1,2019-01-05T14:24:00Z,27.2970,-97.4049,4.258,1111122 
TCOON,ioos:station:TCOON:068:1,2019-01-05T15:24:00Z,27.2970,-97.4049,4.256,1111122 
TCOON,ioos:station:TCOON:068:1,2019-01-05T16:24:00Z,27.2970,-97.4049,4.249,1111122 
TCOON,ioos:station:TCOON:068:1,2019-01-05T17:24:00Z,27.2970,-97.4049,4.249,1111122 
TCOON,ioos:station:TCOON:068:1,2019-01-05T18:24:00Z,27.2970,-97.4049,4.247,1111122 
TCOON,ioos:station:TCOON:068:1,2019-01-05T19:24:00Z,27.2970,-97.4049,4.247,1111122 
TCOON,ioos:station:TCOON:068:1,2019-01-05T20:24:00Z,27.2970,-97.4049,4.242,1111122 
TCOON,ioos:station:TCOON:068:1,2019-01-05T21:24:00Z,27.2970,-97.4049,4.236,1111122 
TCOON,ioos:station:TCOON:068:1,2019-01-05T22:24:00Z,27.2970,-97.4049,4.23,1111122 
TCOON,ioos:station:TCOON:068:1,2019-01-05T23:24:00Z,27.2970,-97.4049,4.228,1111122 
TCOON,ioos:station:TCOON:068:1,2019-01-06T00:24:00Z,27.2970,-97.4049,4.222,1111122 
TCOON,ioos:station:TCOON:068:1,2019-01-06T01:24:00Z,27.2970,-97.4049,4.225,1111122 
TCOON,ioos:station:TCOON:068:1,2019-01-06T03:24:00Z,27.2970,-97.4049,4.228,1111122 
TCOON,ioos:station:TCOON:068:1,2019-01-06T04:30:00Z,27.2970,-97.4049,4.226,1111122 
TCOON,ioos:station:TCOON:068:1,2019-01-06T05:30:00Z,27.2970,-97.4049,4.222,1111122 
TCOON,ioos:station:TCOON:068:1,2019-01-06T06:30:00Z,27.2970,-97.4049,4.217,1111122 
TCOON,ioos:station:TCOON:068:1,2019-01-06T07:30:00Z,27.2970,-97.4049,4.216,1111122 
TCOON,ioos:station:TCOON:068:1,2019-01-06T08:30:00Z,27.2970,-97.4049,4.208,1111122 
TCOON,ioos:station:TCOON:068:1,2019-01-06T09:30:00Z,27.2970,-97.4049,4.208,1111122 
TCOON,ioos:station:TCOON:068:1,2019-01-06T10:30:00Z,27.2970,-97.4049,4.205,1111122 
TCOON,ioos:station:TCOON:068:1,2019-01-06T11:30:00Z,27.2970,-97.4049,4.208,1111122 
TCOON,ioos:station:TCOON:068:1,2019-01-06T12:30:00Z,27.2970,-97.4049,4.208,1111122 
TCOON,ioos:station:TCOON:068:1,2019-01-06T13:30:00Z,27.2970,-97.4049,4.2,1111122 
TCOON,ioos:station:TCOON:068:1,2019-01-06T14:30:00Z,27.2970,-97.4049,4.204,1111122 
TCOON,ioos:station:TCOON:068:1,2019-01-06T15:30:00Z,27.2970,-97.4049,4.208,1111122 
TCOON,ioos:station:TCOON:068:1,2019-01-06T16:24:00Z,27.2970,-97.4049,4.197,1111122 
TCOON,ioos:station:TCOON:068:1,2019-01-06T17:24:00Z,27.2970,-97.4049,4.197,1111122 
TCOON,ioos:station:TCOON:068:1,2019-01-06T18:24:00Z,27.2970,-97.4049,4.19,1111122 
TCOON,ioos:station:TCOON:068:1,2019-01-06T19:24:00Z,27.2970,-97.4049,4.176,1111122 
TCOON,ioos:station:TCOON:068:1,2019-01-06T20:24:00Z,27.2970,-97.4049,4.17,1111122 
TCOON,ioos:station:TCOON:068:1,2019-01-06T21:24:00Z,27.2970,-97.4049,4.17,1111122 
TCOON,ioos:station:TCOON:068:1,2019-01-06T22:24:00Z,27.2970,-97.4049,4.173,1111122 
TCOON,ioos:station:TCOON:068:1,2019-01-06T23:24:00Z,27.2970,-97.4049,4.157,1111122 
TCOON,ioos:station:TCOON:068:1,2019-01-07T00:24:00Z,27.2970,-97.4049,4.158,1111122 
TCOON,ioos:station:TCOON:068:1,2019-01-07T01:24:00Z,27.2970,-97.4049,4.173,1111122 
TCOON,ioos:station:TCOON:068:1,2019-01-07T02:24:00Z,27.2970,-97.4049,4.186,1111122 
TCOON,ioos:station:TCOON:068:1,2019-01-07T03:24:00Z,27.2970,-97.4049,4.168,1111122 
TCOON,ioos:station:TCOON:068:1,2019-01-07T04:24:00Z,27.2970,-97.4049,4.197,1111122 
TCOON,ioos:station:TCOON:068:1,2019-01-07T05:24:00Z,27.2970,-97.4049,4.19,1111122 
TCOON,ioos:station:TCOON:068:1,2019-01-07T06:24:00Z,27.2970,-97.4049,4.184,1111122 
TCOON,ioos:station:TCOON:068:1,2019-01-07T08:54:00Z,27.2970,-97.4049,4.172,1111122 
TCOON,ioos:station:TCOON:068:1,2019-01-07T09:30:00Z,27.2970,-97.4049,4.175,1111122 
TCOON,ioos:station:TCOON:068:1,2019-01-07T10:30:00Z,27.2970,-97.4049,4.178,1111122 
TCOON,ioos:station:TCOON:068:1,2019-01-07T11:30:00Z,27.2970,-97.4049,4.18,1111122 
TCOON,ioos:station:TCOON:068:1,2019-01-07T12:30:00Z,27.2970,-97.4049,4.178,1111122 
TCOON,ioos:station:TCOON:068:1,2019-01-07T13:30:00Z,27.2970,-97.4049,4.177,1111122 
TCOON,ioos:station:TCOON:068:1,2019-01-07T14:30:00Z,27.2970,-97.4049,4.178,1111122 
TCOON,ioos:station:TCOON:068:1,2019-01-07T15:24:00Z,27.2970,-97.4049,4.18,1111122 
TCOON,ioos:station:TCOON:068:1,2019-01-07T16:24:00Z,27.2970,-97.4049,4.178,1111122 
TCOON,ioos:station:TCOON:068:1,2019-01-07T17:24:00Z,27.2970,-97.4049,4.174,1111122 
TCOON,ioos:station:TCOON:068:1,2019-01-07T18:24:00Z,27.2970,-97.4049,4.172,1111122 
TCOON,ioos:station:TCOON:068:1,2019-01-07T19:24:00Z,27.2970,-97.4049,4.17,1111122 
TCOON,ioos:station:TCOON:068:1,2019-01-07T20:24:00Z,27.2970,-97.4049,4.176,1111122 
TCOON,ioos:station:TCOON:068:1,2019-01-07T21:24:00Z,27.2970,-97.4049,4.17,1111122 
TCOON,ioos:station:TCOON:068:1,2019-01-07T22:24:00Z,27.2970,-97.4049,4.16,1111122 
TCOON,ioos:station:TCOON:068:1,2019-01-08T00:24:00Z,27.2970,-97.4049,4.172,1111122 
TCOON,ioos:station:TCOON:068:1,2019-01-08T01:24:00Z,27.2970,-97.4049,4.177,1111122 
TCOON,ioos:station:TCOON:068:1,2019-01-08T02:24:00Z,27.2970,-97.4049,4.177,1111122 
TCOON,ioos:station:TCOON:068:1,2019-01-08T03:24:00Z,27.2970,-97.4049,4.173,1111122 
TCOON,ioos:station:TCOON:068:1,2019-01-08T04:24:00Z,27.2970,-97.4049,4.167,1111122 
TCOON,ioos:station:TCOON:068:1,2019-01-08T05:24:00Z,27.2970,-97.4049,4.167,1111122 
TCOON,ioos:station:TCOON:068:1,2019-01-08T06:24:00Z,27.2970,-97.4049,4.171,1111122 
TCOON,ioos:station:TCOON:068:1,2019-01-08T07:24:00Z,27.2970,-97.4049,4.171,1111122 
TCOON,ioos:station:TCOON:068:1,2019-01-08T08:24:00Z,27.2970,-97.4049,4.173,1111122 
TCOON,ioos:station:TCOON:068:1,2019-01-08T09:24:00Z,27.2970,-97.4049,4.166,1111122 
TCOON,ioos:station:TCOON:068:1,2019-01-08T10:24:00Z,27.2970,-97.4049,4.163,1111122 
TCOON,ioos:station:TCOON:068:1,2019-01-08T11:24:00Z,27.2970,-97.4049,4.166,1111122 
TCOON,ioos:station:TCOON:068:1,2019-01-08T12:24:00Z,27.2970,-97.4049,4.169,1111122 
TCOON,ioos:station:TCOON:068:1,2019-01-08T13:24:00Z,27.2970,-97.4049,4.164,1111122 
TCOON,ioos:station:TCOON:068:1,2019-01-08T14:24:00Z,27.2970,-97.4049,4.169,1111122 
TCOON,ioos:station:TCOON:068:1,2019-01-08T15:24:00Z,27.2970,-97.4049,4.179,1111122 
TCOON,ioos:station:TCOON:068:1,2019-01-08T16:24:00Z,27.2970,-97.4049,4.169,1111122 
TCOON,ioos:station:TCOON:068:1,2019-01-08T17:24:00Z,27.2970,-97.4049,4.167,1111122 
TCOON,ioos:station:TCOON:068:1,2019-01-08T18:24:00Z,27.2970,-97.4049,4.165,1111122 
TCOON,ioos:station:TCOON:068:1,2019-01-08T19:24:00Z,27.2970,-97.4049,4.162,1111122 
TCOON,ioos:station:TCOON:068:1,2019-01-08T20:24:00Z,27.2970,-97.4049,4.164,1111122 
TCOON,ioos:station:TCOON:068:1,2019-01-08T21:24:00Z,27.2970,-97.4049,4.17,1111122 
TCOON,ioos:station:TCOON:068:1,2019-01-08T22:24:00Z,27.2970,-97.4049,4.167,1111122 
TCOON,ioos:station:TCOON:068:1,2019-01-08T23:24:00Z,27.2970,-97.4049,4.161,1111122 
TCOON,ioos:station:TCOON:068:1,2019-01-09T00:24:00Z,27.2970,-97.4049,4.161,1111122 
TCOON,ioos:station:TCOON:068:1,2019-01-09T01:24:00Z,27.2970,-97.4049,4.163,1111122 
TCOON,ioos:station:TCOON:068:1,2019-01-09T02:24:00Z,27.2970,-97.4049,4.16,1111122 
TCOON,ioos:station:TCOON:068:1,2019-01-09T03:24:00Z,27.2970,-97.4049,4.161,1111122 
TCOON,ioos:station:TCOON:068:1,2019-01-09T04:24:00Z,27.2970,-97.4049,4.158,1111122 
TCOON,ioos:station:TCOON:068:1,2019-01-09T05:24:00Z,27.2970,-97.4049,4.157,1111122 
TCOON,ioos:station:TCOON:068:1,2019-01-09T06:24:00Z,27.2970,-97.4049,4.157,1111122 
TCOON,ioos:station:TCOON:068:1,2019-01-09T07:24:00Z,27.2970,-97.4049,4.156,1111122 
TCOON,ioos:station:TCOON:068:1,2019-01-09T08:24:00Z,27.2970,-97.4049,4.157,1111122 
TCOON,ioos:station:TCOON:068:1,2019-01-09T09:24:00Z,27.2970,-97.4049,4.16,1111122 
TCOON,ioos:station:TCOON:068:1,2019-01-09T10:24:00Z,27.2970,-97.4049,4.148,1111122 
TCOON,ioos:station:TCOON:068:1,2019-01-09T11:24:00Z,27.2970,-97.4049,4.154,1111122 
TCOON,ioos:station:TCOON:068:1,2019-01-09T12:24:00Z,27.2970,-97.4049,4.152,1111122 
TCOON,ioos:station:TCOON:068:1,2019-01-09T13:24:00Z,27.2970,-97.4049,4.149,1111122 
TCOON,ioos:station:TCOON:068:1,2019-01-09T14:24:00Z,27.2970,-97.4049,4.162,1111122 
TCOON,ioos:station:TCOON:068:1,2019-01-09T16:54:00Z,27.2970,-97.4049,4.15,1111122 
TCOON,ioos:station:TCOON:068:1,2019-01-09T17:24:00Z,27.2970,-97.4049,4.139,1111122 
TCOON,ioos:station:TCOON:068:1,2019-01-09T18:30:00Z,27.2970,-97.4049,4.131,1111122 
TCOON,ioos:station:TCOON:068:1,2019-01-09T19:24:00Z,27.2970,-97.4049,4.135,1111122 
TCOON,ioos:station:TCOON:068:1,2019-01-09T20:24:00Z,27.2970,-97.4049,4.137,1111122 
TCOON,ioos:station:TCOON:068:1,2019-01-09T21:24:00Z,27.2970,-97.4049,4.136,1111122 
TCOON,ioos:station:TCOON:068:1,2019-01-09T22:24:00Z,27.2970,-97.4049,4.142,1111122 
TCOON,ioos:station:TCOON:068:1,2019-01-09T23:24:00Z,27.2970,-97.4049,4.142,1111122 
TCOON,ioos:station:TCOON:068:1,2019-01-10T00:24:00Z,27.2970,-97.4049,4.151,1111122 
TCOON,ioos:station:TCOON:068:1,2019-01-10T01:24:00Z,27.2970,-97.4049,4.154,1111122 
TCOON,ioos:station:TCOON:068:1,2019-01-10T02:24:00Z,27.2970,-97.4049,4.153,1111122 
TCOON,ioos:station:TCOON:068:1,2019-01-10T03:24:00Z,27.2970,-97.4049,4.155,1111122 
TCOON,ioos:station:TCOON:068:1,2019-01-10T04:24:00Z,27.2970,-97.4049,4.16,1111122 
TCOON,ioos:station:TCOON:068:1,2019-01-10T05:24:00Z,27.2970,-97.4049,4.164,1111122 
TCOON,ioos:station:TCOON:068:1,2019-01-10T06:24:00Z,27.2970,-97.4049,4.171,1111122 
TCOON,ioos:station:TCOON:068:1,2019-01-10T07:24:00Z,27.2970,-97.4049,4.175,1111122 
TCOON,ioos:station:TCOON:068:1,2019-01-10T08:24:00Z,27.2970,-97.4049,4.173,1111122 
TCOON,ioos:station:TCOON:068:1,2019-01-10T09:24:00Z,27.2970,-97.4049,4.175,1111122 
TCOON,ioos:station:TCOON:068:1,2019-01-10T10:24:00Z,27.2970,-97.4049,4.167,1111122 
TCOON,ioos:station:TCOON:068:1,2019-01-10T11:24:00Z,27.2970,-97.4049,4.163,1111122 
TCOON,ioos:station:TCOON:068:1,2019-01-10T12:24:00Z,27.2970,-97.4049,4.163,1111122 
TCOON,ioos:station:TCOON:068:1,2019-01-10T13:24:00Z,27.2970,-97.4049,4.169,1111122 
TCOON,ioos:station:TCOON:068:1,2019-01-10T14:24:00Z,27.2970,-97.4049,4.165,1111122 
TCOON,ioos:station:TCOON:068:1,2019-01-10T15:24:00Z,27.2970,-97.4049,4.166,1111122 
TCOON,ioos:station:TCOON:068:1,2019-01-10T16:24:00Z,27.2970,-97.4049,4.167,1111122 
TCOON,ioos:station:TCOON:068:1,2019-01-10T17:24:00Z,27.2970,-97.4049,4.164,1111122 
TCOON,ioos:station:TCOON:068:1,2019-01-10T18:24:00Z,27.2970,-97.4049,4.163,1111122 
TCOON,ioos:station:TCOON:068:1,2019-01-10T19:24:00Z,27.2970,-97.4049,4.169,1111122 
TCOON,ioos:station:TCOON:068:1,2019-01-10T20:24:00Z,27.2970,-97.4049,4.173,1111122 
TCOON,ioos:station:TCOON:068:1,2019-01-10T21:24:00Z,27.2970,-97.4049,4.178,1111122 
TCOON,ioos:station:TCOON:068:1,2019-01-10T22:24:00Z,27.2970,-97.4049,4.179,1111122 
TCOON,ioos:station:TCOON:068:1,2019-01-10T23:24:00Z,27.2970,-97.4049,4.181,1111122 
TCOON,ioos:station:TCOON:068:1,2019-01-11T00:24:00Z,27.2970,-97.4049,4.176,1111122 
TCOON,ioos:station:TCOON:068:1,2019-01-11T01:24:00Z,27.2970,-97.4049,4.185,1111122 
TCOON,ioos:station:TCOON:068:1,2019-01-11T02:24:00Z,27.2970,-97.4049,4.189,1111122 
TCOON,ioos:station:TCOON:068:1,2019-01-11T03:24:00Z,27.2970,-97.4049,4.189,1111122 
TCOON,ioos:station:TCOON:068:1,2019-01-11T04:24:00Z,27.2970,-97.4049,4.182,1111122 
TCOON,ioos:station:TCOON:068:1,2019-01-11T05:24:00Z,27.2970,-97.4049,4.179,1111122 
TCOON,ioos:station:TCOON:068:1,2019-01-11T06:24:00Z,27.2970,-97.4049,4.195,1111122 
TCOON,ioos:station:TCOON:068:1,2019-01-11T07:24:00Z,27.2970,-97.4049,4.182,1111122 
TCOON,ioos:station:TCOON:068:1,2019-01-11T08:24:00Z,27.2970,-97.4049,4.186,1111122 
TCOON,ioos:station:TCOON:068:1,2019-01-11T09:24:00Z,27.2970,-97.4049,4.186,1111122 
TCOON,ioos:station:TCOON:068:1,2019-01-11T10:24:00Z,27.2970,-97.4049,4.185,1111122 
TCOON,ioos:station:TCOON:068:1,2019-01-11T11:24:00Z,27.2970,-97.4049,4.181,1111122 
TCOON,ioos:station:TCOON:068:1,2019-01-11T12:24:00Z,27.2970,-97.4049,4.187,1111122 
TCOON,ioos:station:TCOON:068:1,2019-01-11T13:24:00Z,27.2970,-97.4049,4.181,1111122 
TCOON,ioos:station:TCOON:068:1,2019-01-11T14:24:00Z,27.2970,-97.4049,4.174,1111122 
TCOON,ioos:station:TCOON:068:1,2019-01-11T15:24:00Z,27.2970,-97.4049,4.185,1111122 
TCOON,ioos:station:TCOON:068:1,2019-01-11T16:24:00Z,27.2970,-97.4049,4.195,1111122 
TCOON,ioos:station:TCOON:068:1,2019-01-11T17:24:00Z,27.2970,-97.4049,4.193,1111122 
TCOON,ioos:station:TCOON:068:1,2019-01-11T18:24:00Z,27.2970,-97.4049,4.186,1111122 
TCOON,ioos:station:TCOON:068:1,2019-01-11T19:24:00Z,27.2970,-97.4049,4.183,1111122 
TCOON,ioos:station:TCOON:068:1,2019-01-11T20:24:00Z,27.2970,-97.4049,4.19,1111122 
TCOON,ioos:station:TCOON:068:1,2019-01-11T21:24:00Z,27.2970,-97.4049,4.188,1111122 
TCOON,ioos:station:TCOON:068:1,2019-01-11T22:24:00Z,27.2970,-97.4049,4.198,1111122 
TCOON,ioos:station:TCOON:068:1,2019-01-11T23:24:00Z,27.2970,-97.4049,4.201,1111122 
TCOON,ioos:station:TCOON:068:1,2019-01-12T00:24:00Z,27.2970,-97.4049,4.206,1111122 
TCOON,ioos:station:TCOON:068:1,2019-01-12T01:24:00Z,27.2970,-97.4049,4.21,1111122 
TCOON,ioos:station:TCOON:068:1,2019-01-12T02:24:00Z,27.2970,-97.4049,4.209,1111122 
TCOON,ioos:station:TCOON:068:1,2019-01-12T03:24:00Z,27.2970,-97.4049,4.223,1111122 
TCOON,ioos:station:TCOON:068:1,2019-01-12T04:24:00Z,27.2970,-97.4049,4.234,1111122 
TCOON,ioos:station:TCOON:068:1,2019-01-12T05:24:00Z,27.2970,-97.4049,4.269,1111122 
TCOON,ioos:station:TCOON:068:1,2019-01-12T06:24:00Z,27.2970,-97.4049,4.241,1111122 
TCOON,ioos:station:TCOON:068:1,2019-01-12T07:24:00Z,27.2970,-97.4049,4.247,1111122 
TCOON,ioos:station:TCOON:068:1,2019-01-12T08:24:00Z,27.2970,-97.4049,4.233,1111122 
TCOON,ioos:station:TCOON:068:1,2019-01-12T09:24:00Z,27.2970,-97.4049,4.232,1111122 
TCOON,ioos:station:TCOON:068:1,2019-01-12T10:24:00Z,27.2970,-97.4049,4.239,1111122 
TCOON,ioos:station:TCOON:068:1,2019-01-12T11:24:00Z,27.2970,-97.4049,4.239,1111122 
TCOON,ioos:station:TCOON:068:1,2019-01-12T12:24:00Z,27.2970,-97.4049,4.237,1111122 
TCOON,ioos:station:TCOON:068:1,2019-01-12T13:24:00Z,27.2970,-97.4049,4.241,1111122 
TCOON,ioos:station:TCOON:068:1,2019-01-12T14:24:00Z,27.2970,-97.4049,4.245,1111122 
TCOON,ioos:station:TCOON:068:1,2019-01-12T15:24:00Z,27.2970,-97.4049,4.245,1111122 
TCOON,ioos:station:TCOON:068:1,2019-01-12T16:24:00Z,27.2970,-97.4049,4.252,1111122 
TCOON,ioos:station:TCOON:068:1,2019-01-12T17:24:00Z,27.2970,-97.4049,4.251,1111122 
TCOON,ioos:station:TCOON:068:1,2019-01-12T18:24:00Z,27.2970,-97.4049,4.251,1111122 
TCOON,ioos:station:TCOON:068:1,2019-01-12T19:24:00Z,27.2970,-97.4049,4.266,1111122 
TCOON,ioos:station:TCOON:068:1,2019-01-12T20:24:00Z,27.2970,-97.4049,4.268,1111122 
TCOON,ioos:station:TCOON:068:1,2019-01-12T21:24:00Z,27.2970,-97.4049,4.265,1111122 
TCOON,ioos:station:TCOON:068:1,2019-01-12T22:24:00Z,27.2970,-97.4049,4.261,1111122 
TCOON,ioos:station:TCOON:068:1,2019-01-12T23:24:00Z,27.2970,-97.4049,4.259,1111122 
TCOON,ioos:station:TCOON:068:1,2019-01-13T00:24:00Z,27.2970,-97.4049,4.25,1111122 